Weather History for Casa Grande, AZ

Change the Weather History Date:

Sunday, February 17, 2013

  Actual Average Record
Temperature  
Mean Temperature 52 °F -  
Max Temperature 71 °F 65 °F 82 °F (2014)
Min Temperature 33 °F 40 °F 33 °F (2013)
Degree Days  
Heating Degree Days 13    
Growing Degree Days 2 (Base 50)    
Moisture  
Dew Point 19 °F    
Average Humidity 27    
Maximum Humidity 52    
Minimum Humidity 13    
Precipitation  
Precipitation 0.00 in - - ()
Sea Level Pressure  
Sea Level Pressure 29.91 in    
Wind  
Wind Speed 4 mph (West)    
Max Wind Speed 17 mph    
Max Gust Speed 21 mph    
Visibility 10 miles    
Events      
Averages and records for this station are not official NWS values.
T = Trace of Precipitation, MM = Missing Value Source: NWS Daily Summary

Daily Weather History Graph

Daily Weather History Graph

Search for Another Location

Airport:

Trip Planner

Search our weather history database for the weather conditions in past years. The results will help you decide how hot, cold, wet, or windy it might be!

Date:

Astronomy

Feb. 17, 2013 Rise Set
Actual Time 7:08 AM MST 6:14 PM MST
Civil Twilight 6:42 AM MST 6:39 PM MST
Nautical Twilight 6:14 AM MST 7:08 PM MST
Astronomical Twilight 5:45 AM MST 7:37 PM MST
Moon 11:28 AM MST (2/17) 12:49 AM MST (2/17)
Length of Visible Light 11h 56m
Length of Day
11h 06m
Waxing Crescent, 49% of the Moon is Illuminated
Feb 17
Waxing Crescent
Feb 17
First Quarter
Feb 25
Full
Mar 4
Last Quarter
Mar 11
New

Hourly Weather History & Observations

Time (MST) Temp. Windchill Dew Point Humidity Pressure Visibility Wind Dir Wind Speed Gust Speed Precip Events Conditions
12:15 AM 55.4 °F - 15.8 °F 21% 29.98 in 10.0 mi Calm Calm - N/A   Clear
12:35 AM 46.4 °F - 15.8 °F 29% 29.97 in 10.0 mi Calm Calm - N/A   Clear
12:55 AM 46.4 °F 45.2 °F 15.8 °F 29% 29.97 in 10.0 mi ENE 3.5 mph - N/A   Clear
1:15 AM 48.2 °F - 17.6 °F 30% 29.96 in 10.0 mi ENE 5.8 mph - N/A   Clear
1:35 AM 44.6 °F - 17.6 °F 34% 29.96 in 10.0 mi Calm Calm - N/A   Clear
1:55 AM 46.4 °F - 17.6 °F 32% 29.96 in 10.0 mi Calm Calm - N/A   Clear
2:15 AM 33.8 °F - 17.6 °F 52% 29.95 in 10.0 mi Calm Calm - N/A   Clear
2:35 AM 46.4 °F 45.2 °F 17.6 °F 32% 29.95 in 10.0 mi SSE 3.5 mph - N/A   Clear
2:55 AM 41.0 °F - 19.4 °F 42% 29.95 in 10.0 mi Calm Calm - N/A   Clear
3:15 AM 37.4 °F - 17.6 °F 45% 29.94 in 10.0 mi Calm Calm - N/A   Clear
3:35 AM 46.4 °F - 17.6 °F 32% 29.93 in 10.0 mi Calm Calm - N/A   Clear
3:55 AM 42.8 °F - 17.6 °F 36% 29.93 in 10.0 mi Calm Calm - N/A   Clear
4:15 AM 44.6 °F - 17.6 °F 34% 29.93 in 10.0 mi Calm Calm - N/A   Clear
4:35 AM 41.0 °F - 19.4 °F 42% 29.93 in 10.0 mi Calm Calm - N/A   Clear
4:55 AM 39.2 °F - 17.6 °F 42% 29.92 in 10.0 mi Calm Calm - N/A   Clear
5:15 AM 39.2 °F 35.9 °F 17.6 °F 42% 29.92 in 10.0 mi NNE 4.6 mph - N/A   Clear
5:35 AM 39.2 °F 35.9 °F 17.6 °F 42% 29.91 in 10.0 mi ENE 4.6 mph - N/A   Clear
5:55 AM 44.6 °F 42.2 °F 17.6 °F 34% 29.91 in 10.0 mi East 4.6 mph - N/A   Clear
6:15 AM 46.4 °F 43.5 °F 17.6 °F 32% 29.92 in 10.0 mi East 5.8 mph - N/A   Clear
6:35 AM 44.6 °F - 17.6 °F 34% 29.92 in 10.0 mi Calm Calm - N/A   Clear
6:55 AM 42.8 °F 40.1 °F 17.6 °F 36% 29.92 in 10.0 mi NE 4.6 mph - N/A   Clear
7:15 AM 37.4 °F 32.8 °F 17.6 °F 45% 29.92 in 10.0 mi ENE 5.8 mph - N/A   Clear
7:35 AM 37.4 °F 33.8 °F 19.4 °F 48% 29.92 in 10.0 mi ENE 4.6 mph - N/A   Clear
7:55 AM 42.8 °F 41.1 °F 19.4 °F 39% 29.93 in 10.0 mi East 3.5 mph - N/A   Clear
8:15 AM 44.6 °F 42.2 °F 19.4 °F 37% 29.93 in 10.0 mi East 4.6 mph - N/A   Clear
8:35 AM 42.8 °F 40.1 °F 19.4 °F 39% 29.94 in 10.0 mi East 4.6 mph - N/A   Clear
8:55 AM 46.4 °F 43.5 °F 21.2 °F 37% 29.94 in 10.0 mi ESE 5.8 mph - N/A   Clear
9:15 AM 46.4 °F 42.9 °F 21.2 °F 37% 29.94 in 10.0 mi ESE 6.9 mph - N/A   Clear
9:35 AM 53.6 °F - 23.0 °F 30% 29.94 in 10.0 mi ESE 3.5 mph - N/A   Clear
9:55 AM 55.4 °F - 23.0 °F 29% 29.94 in 10.0 mi SE 4.6 mph - N/A   Clear
10:15 AM 59.0 °F - 24.8 °F 27% 29.94 in 10.0 mi SSE 5.8 mph - N/A   Clear
10:35 AM 62.6 °F - 23.0 °F 22% 29.94 in 10.0 mi South 5.8 mph - N/A   Clear
10:55 AM 64.4 °F - 23.0 °F 21% 29.94 in 10.0 mi SSW 3.5 mph - N/A   Clear
11:15 AM 64.4 °F - 23.0 °F 21% 29.93 in 10.0 mi SSW 4.6 mph - N/A   Clear
11:35 AM 64.4 °F - 21.2 °F 19% 29.93 in 10.0 mi Calm Calm - N/A   Clear
11:55 AM 62.6 °F - 23.0 °F 22% 29.93 in 10.0 mi Calm Calm - N/A   Clear
12:15 PM 53.6 °F - 24.8 °F 33% 29.92 in 10.0 mi Calm Calm - N/A   Clear
12:35 PM 57.2 °F - 23.0 °F 27% 29.91 in 10.0 mi Calm Calm - N/A   Clear
12:55 PM 66.2 °F - 21.2 °F 18% 29.89 in 10.0 mi Calm Calm - N/A   Clear
1:15 PM 66.2 °F - 21.2 °F 18% 29.89 in 10.0 mi WSW 4.6 mph - N/A   Clear
1:35 PM 62.6 °F - 23.0 °F 22% 29.87 in 10.0 mi West 8.1 mph - N/A   Clear
1:55 PM 68.0 °F - 21.2 °F 17% 29.87 in 10.0 mi WSW 10.4 mph - N/A   Clear
2:15 PM 68.0 °F - 21.2 °F 17% 29.86 in 10.0 mi West 8.1 mph - N/A   Clear
2:35 PM 71.6 °F - 21.2 °F 15% 29.85 in 10.0 mi WNW 11.5 mph 18.4 mph N/A   Clear
2:55 PM 71.6 °F - 21.2 °F 15% 29.85 in 10.0 mi SW 9.2 mph - N/A   Clear
3:15 PM 71.6 °F - 19.4 °F 14% 29.85 in 10.0 mi West 9.2 mph - N/A   Clear
3:35 PM 71.6 °F - 19.4 °F 14% 29.84 in 10.0 mi Calm Calm - N/A   Clear
3:55 PM 69.8 °F - 19.4 °F 15% 29.84 in 10.0 mi WNW 11.5 mph - N/A   Clear
4:15 PM 69.8 °F - 17.6 °F 14% 29.84 in 10.0 mi WNW 11.5 mph 18.4 mph N/A   Clear
4:35 PM 71.6 °F - 17.6 °F 13% 29.84 in 10.0 mi West 13.8 mph 19.6 mph N/A   Clear
4:55 PM 69.8 °F - 17.6 °F 14% 29.84 in 10.0 mi West 17.3 mph 20.7 mph N/A   Clear
5:15 PM 69.8 °F - 17.6 °F 14% 29.84 in 10.0 mi West 12.7 mph - N/A   Clear
5:35 PM 69.8 °F - 17.6 °F 14% 29.84 in 10.0 mi West 11.5 mph - N/A   Clear
5:55 PM 69.8 °F - 15.8 °F 13% 29.85 in 10.0 mi West 12.7 mph - N/A   Clear
6:15 PM 66.2 °F - 15.8 °F 14% 29.85 in 10.0 mi WNW 8.1 mph - N/A   Clear
6:35 PM 64.4 °F - 17.6 °F 16% 29.86 in 10.0 mi WNW 8.1 mph - N/A   Clear
6:55 PM 66.2 °F - 15.8 °F 14% 29.87 in 10.0 mi WNW 6.9 mph - N/A   Clear
7:15 PM 64.4 °F - 15.8 °F 15% 29.87 in 10.0 mi WNW 8.1 mph - N/A   Clear
7:35 PM 59.0 °F - 15.8 °F 19% 29.88 in 10.0 mi WNW 6.9 mph - N/A   Clear
7:55 PM 64.4 °F - 15.8 °F 15% 29.88 in 10.0 mi WNW 6.9 mph - N/A   Clear
8:15 PM 62.6 °F - 15.8 °F 16% 29.89 in 10.0 mi WNW 5.8 mph - N/A   Clear
8:35 PM 60.8 °F - 15.8 °F 17% 29.89 in 10.0 mi WNW 5.8 mph - N/A   Clear
8:55 PM 59.0 °F - 15.8 °F 19% 29.90 in 10.0 mi West 8.1 mph - N/A   Clear
9:15 PM 57.2 °F - 15.8 °F 20% 29.91 in 10.0 mi West 5.8 mph - N/A   Clear
9:35 PM 57.2 °F - 17.6 °F 21% 29.91 in 10.0 mi WNW 5.8 mph - N/A   Clear
9:55 PM 57.2 °F - 15.8 °F 20% 29.92 in 10.0 mi WSW 3.5 mph - N/A   Clear
10:15 PM 55.4 °F - 15.8 °F 21% 29.92 in 10.0 mi SW 3.5 mph - N/A   Clear
10:35 PM 44.6 °F 43.1 °F 17.6 °F 34% 29.93 in 10.0 mi SSW 3.5 mph - N/A   Clear
10:55 PM 48.2 °F - 17.6 °F 30% 29.93 in 10.0 mi Calm Calm - N/A   Clear
11:15 PM 44.6 °F - 17.6 °F 34% 29.93 in 10.0 mi Calm Calm - N/A   Clear
11:35 PM 50.0 °F - 17.6 °F 28% 29.93 in 10.0 mi SW 5.8 mph - N/A   Clear
11:55 PM 44.6 °F 42.2 °F 19.4 °F 37% 29.94 in 10.0 mi WSW 4.6 mph - N/A   Clear